Weather Roundup
Issued by NWS Corpus Christi, TX

Home | Current Version | Previous Version | Text Only | Print | Product List | Glossary On
Versions: 1 2 3 4 5 6 7 8 9 10 11 12 13 14 15 16 17 18 19 20 21 22 23 24 25 26 27 28 29 30 31 32 33 34 35 36 37 38 39 40 41 42 43 44 45 46 47 48 49 50
000
ASUS44 KCRP 092110
HRRCRP

SOUTH TEXAS REGIONAL WEATHER ROUNDUP
NATIONAL WEATHER SERVICE CORPUS CHRISTI TX
300 PM CST TUE FEB 09 2016


TXZ229>244-092200-
...CORPUS CHRISTI AREA OBSERVATIONS...

CITY           SKY/WX    TMP DP  RH WIND       PRES   REMARKS
CORPUS CHRISTI MOSUNNY   73  23  15 VRB5      30.27F
NAS CORPUS CHR MOSUNNY   70  32  24 CALM      30.28F
ROCKPORT       SUNNY     72  27  18 W6        30.26F
KINGSVILLE NAS MOSUNNY   74  29  19 N9        30.27F
ALICE            N/A     74  25  16 N12G17    30.27F
FALFURRIAS     SUNNY     75  18  12 N7        30.27F
$$

...VICTORIA AREA OBSERVATIONS...

CITY           SKY/WX    TMP DP  RH WIND       PRES   REMARKS
VICTORIA       SUNNY     70  28  21 NW14      30.26F
BEEVILLE       FAIR      72  31  21 NW10      30.27F
PLEASANTON     SUNNY     73  29  19 NW8G17    30.27F
SAN ANTONIO    SUNNY     72  28  19 W9        30.26F
$$

...LAREDO AREA OBSERVATIONS...

CITY           SKY/WX    TMP DP  RH WIND       PRES   REMARKS
LAREDO         SUNNY     73  23  15 W8        30.28F
COTULLA        SUNNY     74  24  15 NW6       30.28F
DEL RIO        SUNNY     72  20  14 VRB5      30.28F
MCALLEN        SUNNY     77  21  12 CALM      30.28F
HEBBRONVILLE   NOT AVBL
$$

...OTHER TEXAS OBSERVATIONS...

CITY           SKY/WX    TMP DP  RH WIND       PRES   REMARKS
BROWNSVILLE    SUNNY     72  32  23 NE13      30.29F
HOUSTON        SUNNY     65  22  19 NW15G24   30.23F
COL. STATION   SUNNY     66  23  19 NW10      30.24F
AUSTIN         SUNNY     71  28  20 NW15G25   30.24F
WACO           SUNNY     70  29  21 N14G26    30.20F
FORT WORTH     MOSUNNY   63  24  22 NW14      30.22S
WICHITA FALLS  SUNNY     61  26  26 N14       30.23F
LUBBOCK        SUNNY     65  21  18 NW9G21    30.28F
EL PASO        SUNNY     62  16  16 CALM      30.30F
$$

...MARINE OBSERVATIONS...

STATION/POSITION TIME  SKY/WX   TEMP    WIND        PRES    VSBY  WAVE   SWELL
                                AIR SEA DIR/SP/G                  HT/PER HT/PER
                 (UTC)          (F)     (DEG/KT/KT) (MB)    (MI)  (FT/S) (FT/S)
PORT ARANSAS     2100            59 59  160/  8/  9 1026.2F
BUOY 90 E PORT A 2050            60 67  300/ 14/ 17 1025.1F         3/ 5
BUOY 45 SE BAFFI 2050            62 70  360/  8/ 12 1025.9F         2/ 4   2/ 4
BUOY 200 E PT IS 2050                                 N/A           9/ 7
BUOY 15 E GALVES 2050            56 57  290/ 12/ 14 1023.7F         1/ 3
$$



USA.gov is the U.S. government's official web portal to all federal, state and local government web resources and services.